Terminal Aerodrome Forecast
Issued by NWS

Home | Current Version | Previous Version | Text Only | Print | Product List | Glossary On
Versions: 1 2 3 4 5 6 7 8 9 10 11 12 13 14
000
FTUS42 KTBW 011740
TAFLAL
TAF
KLAL 011740Z 0118/0218 21011KT P6SM VCTS FEW020CB BKN035 BKN090
      TEMPO 0118/0120 VRB15G30KT 4SM TSRA BKN020CB
     FM012300 21007KT P6SM VCTS SCT025CB BKN090 BKN250
     FM020000 22006KT P6SM VCTS SCT025CB BKN150
     FM020300 VRB03KT P6SM SCT020 BKN150
     FM021200 18004KT P6SM VCTS SCT045CB BKN150
     FM021500 21008KT P6SM VCTS SCT020CB BKN120=

USA.gov is the U.S. government's official web portal to all federal, state and local government web resources and services.